Location: ?
(35.4214°N, 139.3011°E)
Time: 22:09:37
(UTC+00:00)

TIMED - Pass Details

Date: 14 July 2020
Orbit: 602 x 605 km, 74.1° (Epoch: 10 August)

Event Time Altitude Azimuth Distance (km) Brightness Sun altitude
Exits shadow 11:51:13 25° 194° (SSW) 1,209 5.7 -19.2°
Maximum altitude 11:53:41 86° 106° (ESE) 609 4.4 -19.5°
Drops below altitude 10° 11:58:03 10° 18° (NNE) 1,953 7.5 -20.1°
Sets 12:00:17 0° 18° (NNE) 2,861 8.4 -20.4°
